Back to catalog

CZ-6A DEB

AlivePO
NORAD 54553·DEBRIS·🇨🇳 China

Launched Nov 11, 2022 from Taiyuan Satellite Launch Center

Loading…

Next Passes (next 24 hours)

TLE

FreshSource: Space-Track

Epoch: Sep 13, 2026, 18:37 UTC

1 54553U 22151LD  26256.77632702  .00052341  00000-0  30671-2 0  9992
2 54553  98.6363 351.3210 0027242 299.6733  60.1782 15.11281246132810

Track CZ-6A DEB in real time with AllMySat

Download on the App Store